Main page
METAR-TAF:

METAR-TAF

Airports :

F 7 Såtenäs

Såtenäs, Sweden

latitude: 58-26N, longitude: 012-42E, elevation: 54 m

Current weather observation

The report was made 38 minutes ago, at 21:50 UTC
Wind 10 kt from the Southwest
Temperature 16°C
Humidity 94%
Pressure 1012 hPa
Visibility 10 km or more
light drizzle, rain,

METAR: ESIB 172150Z AUTO 22010KT 9999 -DZRA FEW012/// SCT091/// 16/15 Q1012

Time: 00:28 (22:28 UTC)


TAF: missing

Weather observations and forecasts of more than 4000 airports (METAR and TAF reports).

The available stations are represented by yellow and red dots on the map.

Hover mouse over dot to see the name of the station.

Then click to see weather observations and forecasts.

To change the map : click on the green buttons with a black cross to zoom in, on the green button with a dash to zoom out, or on the green arrows for adjacent maps.


METAR-TAF: